EW2255 Weather Reports


Display with metric or nautical units.
time (UTC)temp
F
wind
direction
speed
MPH
gust
MPH
rain 1hr
in
rain 24hr
in
rain mn
in
humidity
%
barometer
mb
20171124215530 45 230 2.0 4.0 0.02 0.05 0.05 93 991.3
20171124215313 46 227 3.0 4.0 0.03 0.05 0.05 93 990.8
20171124214823 45 225 1.0 3.0 0.03 0.05 0.05 93 990.8
20171124214326 45 225 1.0 3.0 0.03 0.05 0.05 93 990.7
20171124213932 45 225 0.0 2.0 0.03 0.05 0.05 93 991.0
20171124213836 45 225 0.0 2.0 0.03 0.05 0.05 93 990.5
20171124213319 45 225 1.0 2.0 0.03 0.05 0.05 92 990.3
20171124212848 45 225 0.0 0.0 0.03 0.05 0.05 92 990.3
20171124212329 46 225 0.0 0.0 0.03 0.05 0.05 92 990.3
20171124212127 45 225 0.0 0.0 0.03 0.05 0.05 92 990.8
20171124211825 46 225 0.0 2.0 0.03 0.04 0.04 92 990.2
20171124211309 45 225 0.0 2.0 0.03 0.04 0.04 91 990.0
20171124210811 45 225 0.0 2.0 0.02 0.03 0.03 91 989.9
20171124210530 45 225 0.0 2.0 0.02 0.03 0.03 90 990.3
20171124210315 45 225 0.0 3.0 0.02 0.03 0.03 90 989.9
20171124205306 46 236 3.0 6.0 0.02 0.02 0.02 88 989.9
20171124204932 46 266 2.0 7.0 0.02 0.02 0.02 87 990.2
20171124204810 46 266 3.0 7.0 0.02 0.02 0.02 87 989.7
20171124204319 47 264 6.0 8.0 0.02 0.02 0.02 86 989.8
20171124203810 47 251 6.0 8.0 0.02 0.02 0.02 85 989.5
20171124203313 47 238 7.0 8.0 0.02 0.02 0.02 85 989.3
20171124203233 47 238 6.0 8.0 0.02 0.02 0.02 85 989.8
20171124202822 47 229 6.0 8.0 0.02 0.02 0.02 86 988.9
20171124202306 47 238 2.0 4.0 0.02 0.02 0.02 87 988.4
20171124201809 47 238 0.0 4.0 0.01 0.01 0.01 87 988.3
20171124201637 47 238 0.0 4.0 0.01 0.01 0.01 87 988.8
20171124201313 47 238 1.0 4.0 0.01 0.01 0.01 86 988.3
20171124200843 47 238 2.0 3.0 0.01 0.01 0.01 85 988.3
20171124200332 47 238 1.0 7.0 0.01 0.01 0.01 85 988.3
20171124200017 47 240 1.0 10.0 0.01 0.01 0.01 84 989.1
20171124195814 47 240 2.0 10.0 0.01 0.01 0.01 83 988.8
20171124195317 47 233 8.0 13.0 0.00 0.00 0.00 82 989.0
20171124194821 47 220 8.0 16.0 0.00 0.00 0.00 81 989.0
20171124194434 47 243 11.0 16.0 0.00 0.00 0.00 81 989.5
20171124194330 48 244 12.0 16.0 0.00 0.00 0.00 81 989.1
20171124193814 48 240 13.0 16.0 0.00 0.00 0.00 81 988.8
20171124193317 48 249 13.0 16.0 0.00 0.00 0.00 80 988.6
20171124192826 48 246 12.0 17.0 0.00 0.00 0.00 79 988.2
20171124192819 47 249 12.0 17.0 0.00 0.00 0.00 79 988.6
20171124192337 49 248 15.0 17.0 0.00 0.00 0.00 78 988.0
20171124191819 48 225 5.0 14.0 0.00 0.00 0.00 78 986.9
20171124191308 48 238 10.0 17.0 0.00 0.00 0.00 78 987.7
20171124191056 48 238 12.0 17.0 0.00 0.00 0.00 77 988.4
20171124190811 49 229 12.0 17.0 0.00 0.00 0.00 77 988.2
20171124190315 49 230 14.0 18.0 0.00 0.00 0.00 76 988.2
20171124185825 49 223 14.0 17.0 0.00 0.00 0.00 76 988.3
20171124185455 48 227 12.0 17.0 0.00 0.00 0.00 77 988.7
20171124185325 48 242 13.0 16.0 0.00 0.00 0.00 78 988.3
20171124184835 47 236 11.0 17.0 0.00 0.00 0.00 81 988.4
20171124184316 47 230 12.0 17.0 0.00 0.00 0.00 83 988.7
20171124183852 46 235 8.0 14.0 0.00 0.00 0.00 82 989.2
20171124183818 47 233 8.0 14.0 0.00 0.00 0.00 82 988.7
20171124183329 47 238 12.0 14.0 0.00 0.00 0.00 81 988.9
20171124182812 49 247 12.0 14.0 0.00 0.00 0.00 77 988.9
20171124182315 50 248 11.0 13.0 0.00 0.00 0.00 72 988.5
20171124182227 50 245 10.0 13.0 0.00 0.00 0.00 72 989.0
20171124181825 51 244 9.0 13.0 0.00 0.00 0.00 71 988.5
20171124181312 51 227 7.0 13.0 0.00 0.00 0.00 70 988.3
20171124180813 51 236 5.0 10.0 0.00 0.00 0.00 70 988.2
20171124180640 50 231 5.0 10.0 0.00 0.00 0.00 70 988.7
20171124180324 51 238 4.0 15.0 0.00 0.00 0.00 69 987.9
20171124175806 50 150 7.0 15.0 0.00 0.00 0.00 70 988.3
20171124175329 50 223 5.0 14.0 0.00 0.00 0.00 70 988.0
20171124175008 49 227 4.0 14.0 0.00 0.00 0.00 70 988.8
20171124174818 50 216 6.0 15.0 0.00 0.00 0.00 71 988.4
20171124174320 49 215 8.0 16.0 0.00 0.00 0.00 71 988.8
20171124173830 49 225 10.0 16.0 0.00 0.00 0.00 72 989.0
20171124173408 48 210 10.0 15.0 0.00 0.00 0.00 72 989.7
20171124173313 49 238 11.0 16.0 0.00 0.00 0.00 72 989.2
20171124172822 48 232 10.0 15.0 0.00 0.00 0.00 73 988.9
20171124172306 47 226 7.0 13.0 0.00 0.00 0.00 79 988.6
20171124171809 47 229 9.0 14.0 0.00 0.00 0.00 79 989.0
20171124171712 46 222 9.0 14.0 0.00 0.00 0.00 79 989.7
20171124170822 48 246 12.0 15.0 0.00 0.00 0.00 76 989.1
20171124170311 48 239 12.0 15.0 0.00 0.00 0.00 75 989.0
20171124170005 47 251 12.0 15.0 0.00 0.00 0.00 76 989.5
20171124165821 47 234 11.0 13.0 0.00 0.00 0.00 77 988.8
20171124165353 46 250 8.0 11.0 0.00 0.00 0.00 80 988.7
20171124164814 46 283 7.0 11.0 0.00 0.00 0.00 80 989.4
20171124164348 46 244 7.0 12.0 0.00 0.00 0.00 80 989.4
20171124164317 46 243 7.0 12.0 0.00 0.00 0.00 80 988.9
20171124163828 47 296 10.0 14.0 0.00 0.00 0.00 79 989.6
20171124163312 47 262 12.0 16.0 0.00 0.00 0.00 76 989.6
20171124162813 49 254 12.0 16.0 0.00 0.00 0.00 71 988.9
20171124162738 48 242 11.0 16.0 0.00 0.00 0.00 70 989.2
20171124162315 49 229 10.0 14.0 0.00 0.00 0.00 69 988.3
20171124161822 49 222 9.0 16.0 0.00 0.00 0.00 68 988.3
20171124161319 49 244 10.0 16.0 0.00 0.00 0.00 68 988.4
20171124161131 49 233 8.0 16.0 0.00 0.00 0.00 68 988.9
20171124160824 49 236 7.0 13.0 0.00 0.00 0.00 68 988.4
20171124160308 49 219 6.0 15.0 0.00 0.00 0.00 67 988.5
20171124155810 49 223 6.0 15.0 0.00 0.00 0.00 68 988.5
20171124155534 49 215 6.0 15.0 0.00 0.00 0.00 68 989.0
20171124155339 49 227 8.0 0.0 0.00 0.00 0.00 68 988.4
20171124154817 49 232 7.0 18.0 0.00 0.00 0.00 68 988.6
20171124154327 49 215 10.0 18.0 0.00 0.00 0.00 68 988.7
20171124153903 48 264 8.0 18.0 0.00 0.00 0.00 69 989.5
20171124153319 48 205 9.0 18.0 0.00 0.00 0.00 72 988.7
20171124152819 47 221 10.0 16.0 0.00 0.00 0.00 74 988.9
20171124152309 47 230 12.0 15.0 0.00 0.00 0.00 76 989.0
20171124152216 46 239 11.0 15.0 0.00 0.00 0.00 77 989.7
20171124151819 46 233 11.0 13.0 0.00 0.00 0.00 78 989.2
20171124151321 46 240 10.0 12.0 0.00 0.00 0.00 79 989.2
20171124150831 46 236 10.0 13.0 0.00 0.00 0.00 79 989.3
20171124150623 46 246 10.0 14.0 0.00 0.00 0.00 78 990.0
20171124150315 47 236 10.0 15.0 0.00 0.00 0.00 77 989.3
20171124145816 47 229 12.0 17.0 0.00 0.00 0.00 75 989.6
20171124145325 48 243 14.0 17.0 0.00 0.00 0.00 72 989.8
20171124145009 48 231 13.0 17.0 0.00 0.00 0.00 69 990.1
20171124144828 48 235 12.0 17.0 0.00 0.00 0.00 69 989.2
20171124144309 48 237 12.0 18.0 0.00 0.00 0.00 69 989.2
20171124143820 48 243 13.0 18.0 0.00 0.00 0.00 69 989.3
20171124143356 48 212 12.0 18.0 0.00 0.00 0.00 69 989.8
20171124143323 48 240 13.0 18.0 0.00 0.00 0.00 69 989.1
20171124142806 49 238 15.0 18.0 0.00 0.00 0.00 67 989.5
20171124142315 49 201 11.0 17.0 0.00 0.00 0.00 67 989.1
20171124141819 48 221 9.0 20.0 0.00 0.00 0.00 68 989.0
20171124141750 48 210 9.0 20.0 0.00 0.00 0.00 68 989.6
20171124141321 48 202 11.0 20.0 0.00 0.00 0.00 67 989.0
20171124140832 48 209 7.0 22.0 0.00 0.00 0.00 67 989.2
20171124140314 48 236 10.0 22.0 0.00 0.00 0.00 68 989.5
20171124140136 48 223 11.0 22.0 0.00 0.00 0.00 68 990.0
20171124135823 48 231 10.0 22.0 0.00 0.00 0.00 68 989.5
20171124135307 48 211 11.0 22.0 0.00 0.00 0.00 68 989.6
20171124134811 48 237 11.0 19.0 0.00 0.00 0.00 67 989.7
20171124134433 47 227 11.0 19.0 0.00 0.00 0.00 68 990.3
20171124134328 48 236 11.0 18.0 0.00 0.00 0.00 68 989.7
20171124133809 48 241 8.0 16.0 0.00 0.00 0.00 68 989.7
20171124133312 48 228 10.0 17.0 0.00 0.00 0.00 69 989.8
20171124132830 48 219 11.0 17.0 0.00 0.00 0.00 68 990.6
20171124132813 48 221 12.0 17.0 0.00 0.00 0.00 68 990.0
20171124132323 48 230 11.0 20.0 0.00 0.00 0.00 67 990.0
20171124131852 48 237 11.0 20.0 0.00 0.00 0.00 67 989.9
20171124131313 48 221 10.0 16.0 0.00 0.00 0.00 67 990.0
20171124131158 48 210 9.0 16.0 0.00 0.00 0.00 67 990.6
20171124130817 48 228 8.0 17.0 0.00 0.00 0.00 67 990.0
20171124130320 48 250 9.0 17.0 0.00 0.00 0.00 68 990.1
20171124125829 48 242 9.0 16.0 0.00 0.00 0.00 67 990.2
20171124125603 48 215 10.0 16.0 0.00 0.00 0.00 67 991.0
20171124125312 48 236 10.0 15.0 0.00 0.00 0.00 67 990.3
20171124124814 48 248 10.0 17.0 0.00 0.00 0.00 67 990.4
20171124124324 48 220 10.0 17.0 0.00 0.00 0.00 67 990.4
20171124124008 48 237 9.0 16.0 0.00 0.00 0.00 67 991.0
20171124123807 48 219 9.0 16.0 0.00 0.00 0.00 67 990.4
20171124123310 48 248 10.0 17.0 0.00 0.00 0.00 67 990.5
20171124122812 48 218 9.0 18.0 0.00 0.00 0.00 66 990.6
20171124122431 48 239 7.0 18.0 0.00 0.00 0.00 67 991.3
20171124122342 48 211 8.0 18.0 0.00 0.00 0.00 67 990.6
20171124121831 48 210 8.0 16.0 0.00 0.00 0.00 67 990.6
20171124121336 48 206 8.0 19.0 0.00 0.00 0.00 67 990.7
20171124120817 48 245 8.0 19.0 0.00 0.00 0.00 67 990.9
20171124120714 47 222 9.0 19.0 0.00 0.00 0.00 67 991.5
20171124120308 48 225 10.0 18.0 0.00 0.00 0.00 66 990.8
20171124115810 48 206 9.0 18.0 0.00 0.00 0.00 67 990.8
20171124115312 48 234 10.0 18.0 0.00 0.00 0.00 67 990.8
20171124115120 47 226 10.0 18.0 0.00 0.00 0.00 67 991.6
20171124114822 47 230 10.0 17.0 0.00 0.00 0.00 67 990.9
20171124114326 47 236 10.0 17.0 0.00 0.00 0.00 68 990.9
20171124113822 47 225 9.0 18.0 0.00 0.00 0.00 67 991.0
20171124113406 47 178 11.0 20.0 0.00 0.00 0.00 67 991.7
20171124113310 47 236 10.0 20.0 0.00 0.00 0.00 67 990.9
20171124112828 47 173 9.0 20.0 0.00 0.00 0.00 67 991.0
20171124112338 47 240 8.0 17.0 0.00 0.00 0.00 67 990.9
20171124111823 47 216 5.0 16.0 0.00 0.00 0.00 67 991.4
20171124111709 46 209 6.0 16.0 0.00 0.00 0.00 68 992.1
20171124111307 47 221 8.0 16.0 0.00 0.00 0.00 67 991.5
20171124110817 47 215 6.0 13.0 0.00 0.00 0.00 67 991.6
20171124110321 47 223 7.0 13.0 0.00 0.00 0.00 67 991.7
20171124110018 46 207 7.0 18.0 0.00 0.00 0.00 67 992.4
20171124105814 46 217 7.0 18.0 0.00 0.00 0.00 67 991.7
20171124105318 47 233 8.0 20.0 0.00 0.00 0.00 67 991.8
20171124104821 46 229 8.0 18.0 0.00 0.00 0.00 67 991.8
20171124104417 46 207 9.0 18.0 0.00 0.00 0.00 67 992.7
20171124104331 47 229 8.0 18.0 0.00 0.00 0.00 67 991.8
20171124103814 47 201 9.0 19.0 0.00 0.00 0.00 67 992.0
20171124103317 47 257 8.0 20.0 0.00 0.00 0.00 68 992.2
20171124102826 47 242 12.0 20.0 0.00 0.00 0.00 67 992.2
20171124102824 46 229 12.0 20.0 0.00 0.00 0.00 67 993.1
20171124102310 46 210 11.0 19.0 0.00 0.00 0.00 67 992.2
20171124101812 46 244 11.0 19.0 0.00 0.00 0.00 68 992.2
20171124101322 46 223 10.0 19.0 0.00 0.00 0.00 67 992.2
20171124101211 46 238 9.0 19.0 0.00 0.00 0.00 66 993.0
20171124100805 46 236 11.0 19.0 0.00 0.00 0.00 66 992.4
20171124100308 46 218 10.0 22.0 0.00 0.00 0.00 67 992.4
20171124095810 46 237 9.0 19.0 0.00 0.00 0.00 67 992.4
20171124095614 45 191 10.0 19.0 0.00 0.00 0.00 66 993.3
20171124095320 45 231 9.0 19.0 0.00 0.00 0.00 67 992.5
20171124094822 45 230 9.0 18.0 0.00 0.00 0.00 67 992.4
20171124094305 45 245 8.0 16.0 0.00 0.00 0.00 66 992.7
20171124094022 44 221 8.0 16.0 0.00 0.00 0.00 67 993.5
20171124093815 45 225 8.0 15.0 0.00 0.00 0.00 67 992.7
20171124093319 45 209 7.0 15.0 0.00 0.00 0.00 67 992.8
20171124092820 44 224 7.0 16.0 0.00 0.00 0.00 67 992.9
20171124092416 44 252 6.0 16.0 0.00 0.00 0.00 67 993.8
20171124092330 44 218 9.0 16.0 0.00 0.00 0.00 66 993.0
20171124091812 44 240 7.0 17.0 0.00 0.00 0.00 67 993.0
20171124091343 44 243 7.0 17.0 0.00 0.00 0.00 66 993.3
20171124090824 44 229 6.0 18.0 0.00 0.00 0.00 66 993.5
20171124090745 44 221 6.0 18.0 0.00 0.00 0.00 67 994.4
20171124090325 44 213 9.0 18.0 0.00 0.00 0.00 67 993.7
20171124085813 44 216 9.0 20.0 0.00 0.00 0.00 67 993.8
20171124085336 44 223 11.0 20.0 0.00 0.00 0.00 67 994.1
20171124085127 44 238 11.0 18.0 0.00 0.00 0.00 67 995.0
20171124084825 44 223 9.0 17.0 0.00 0.00 0.00 66 994.2
20171124084329 44 217 11.0 17.0 0.00 0.00 0.00 66 994.3
20171124083845 44 223 11.0 19.0 0.00 0.00 0.00 67 994.4
20171124083354 43 227 11.0 19.0 0.00 0.00 0.00 68 995.2
20171124083308 44 205 12.0 20.0 0.00 0.00 0.00 69 994.4
20171124082809 44 226 13.0 20.0 0.00 0.00 0.00 68 994.7
20171124082339 44 240 13.0 19.0 0.00 0.00 0.00 68 994.7
20171124081821 43 223 12.0 17.0 0.00 0.00 0.00 69 994.7
20171124081738 43 228 10.0 17.0 0.00 0.00 0.00 69 995.6
20171124081310 43 229 10.0 20.0 0.00 0.00 0.00 68 994.8
20171124080820 43 223 10.0 20.0 0.00 0.00 0.00 67 995.0
20171124080323 43 223 12.0 20.0 0.00 0.00 0.00 69 995.0
20171124080024 43 238 10.0 20.0 0.00 0.00 0.00 68 995.9
20171124075805 43 221 12.0 18.0 0.00 0.00 0.00 67 995.0
20171124075315 43 225 10.0 18.0 0.00 0.00 0.00 67 995.0
20171124074819 43 219 10.0 20.0 0.00 0.00 0.00 69 995.3
20171124074427 42 233 12.0 22.0 0.00 0.00 0.00 67 996.4
20171124074327 43 213 13.0 22.0 0.00 0.00 0.00 68 995.6
20171124073809 43 232 13.0 18.0 0.00 0.00 0.00 67 995.8
20171124073312 42 228 11.0 22.0 0.00 0.00 0.00 66 996.0
20171124072841 42 257 10.0 22.0 0.00 0.00 0.00 66 996.1
20171124072803 42 225 11.0 22.0 0.00 0.00 0.00 66 997.0
20171124072350 42 238 10.0 17.0 0.00 0.00 0.00 67 996.1
20171124071811 42 243 10.0 18.0 0.00 0.00 0.00 66 996.1
20171124071334 42 223 9.0 18.0 0.00 0.00 0.00 66 996.2
20171124071118 41 232 10.0 18.0 0.00 0.00 0.00 67 997.1
20171124070822 42 227 8.0 15.0 0.00 0.00 0.00 68 996.3
20171124070353 41 221 8.0 16.0 0.00 0.00 0.00 67 996.5
20171124065814 41 232 9.0 16.0 0.00 0.00 0.00 68 996.7
20171124065458 41 225 8.0 18.0 0.00 0.00 0.00 68 997.8
20171124065316 41 217 9.0 18.0 0.00 0.00 0.00 67 996.9
20171124064817 41 223 7.0 21.0 0.00 0.00 0.00 69 997.1
20171124064327 41 215 11.0 21.0 0.00 0.00 0.00 68 997.4
20171124063856 41 228 12.0 19.0 0.00 0.00 0.00 69 998.5
20171124063809 41 229 12.0 19.0 0.00 0.00 0.00 69 997.7
20171124063313 41 236 11.0 22.0 0.00 0.00 0.00 68 997.9
20171124062823 41 249 11.0 19.0 0.00 0.00 0.00 68 997.7
20171124062333 41 218 10.0 19.0 0.00 0.00 0.00 67 997.7
20171124062159 40 227 8.0 17.0 0.00 0.00 0.00 67 998.6
20171124061815 41 202 8.0 20.0 0.00 0.00 0.00 67 997.8
20171124061322 41 248 10.0 21.0 0.00 0.00 0.00 67 998.0
20171124060805 41 217 10.0 21.0 0.00 0.00 0.00 68 998.2
20171124060542 40 234 10.0 21.0 0.00 0.00 0.00 67 999.3
20171124060309 41 230 8.0 19.0 0.00 0.00 0.00 67 998.4
20171124055838 41 239 10.0 19.0 0.00 0.00 0.00 69 998.7
20171124055319 41 219 10.0 17.0 0.00 0.00 0.00 69 999.0
20171124054920 40 219 8.0 15.0 0.00 0.00 0.00 69 1000.1
20171124054809 41 211 10.0 15.0 0.00 0.00 0.00 69 999.1
20171124054311 41 245 9.0 17.0 0.00 0.00 0.00 71 999.4
20171124053813 40 219 11.0 17.0 0.00 0.00 0.00 69 999.5
20171124053326 40 229 7.0 15.0 0.00 0.00 0.00 69 999.5
20171124053304 40 242 7.0 15.0 0.00 0.00 0.00 69 1000.4
20171124052828 40 223 5.0 13.0 0.00 0.00 0.00 69 999.6
20171124052317 40 219 8.0 14.0 0.00 0.00 0.00 69 999.8
20171124051820 40 211 6.0 16.0 0.00 0.00 0.00 70 999.9
20171124051659 39 242 5.0 16.0 0.00 0.00 0.00 69 1000.9
20171124051350 40 232 7.0 16.0 0.00 0.00 0.00 70 1000.1
20171124050809 40 223 8.0 15.0 0.00 0.00 0.00 69 1000.3
20171124050312 40 244 9.0 14.0 0.00 0.00 0.00 70 1000.4
20171124050024 39 222 6.0 14.0 0.00 0.00 0.00 70 1001.5
20171124045820 40 252 6.0 16.0 0.00 0.00 0.00 69 1000.6
20171124044813 40 246 11.0 16.0 0.00 0.00 0.00 70 1000.9
20171124044328 39 223 6.0 12.0 0.00 0.00 0.00 72 1001.8
20171124044315 40 171 7.0 12.0 0.00 0.00 0.00 72 1000.9
20171124043845 40 233 8.0 12.0 0.00 0.00 0.00 73 1000.9
20171124043307 40 227 7.0 12.0 0.00 0.00 0.00 71 1001.1
20171124042816 40 238 7.0 12.0 0.00 0.00 0.00 72 1001.2
20171124042658 39 216 5.0 12.0 0.00 0.00 0.00 73 1002.2
20171124042319 39 250 6.0 9.0 0.00 0.00 0.00 72 1001.2
20171124041821 39 225 5.0 9.0 0.00 0.00 0.00 72 1001.4
20171124041313 39 236 3.0 10.0 0.00 0.00 0.00 70 1001.4
20171124041057 39 339 3.0 10.0 0.00 0.00 0.00 70 1002.3
20171124040813 39 151 4.0 10.0 0.00 0.00 0.00 69 1001.4
20171124040316 39 221 3.0 9.0 0.00 0.00 0.00 69 1001.5
20171124035824 39 250 3.0 10.0 0.00 0.00 0.00 69 1001.6
20171124035456 39 237 3.0 10.0 0.00 0.00 0.00 68 1002.7
20171124035306 39 218 5.0 10.0 0.00 0.00 0.00 69 1001.9
20171124034809 39 234 4.0 8.0 0.00 0.00 0.00 68 1001.9
20171124034319 39 240 2.0 7.0 0.00 0.00 0.00 69 1002.0
20171124033857 38 224 2.0 8.0 0.00 0.00 0.00 69 1003.3
20171124033823 39 192 3.0 8.0 0.00 0.00 0.00 69 1002.2
20171124033306 38 204 2.0 8.0 0.00 0.00 0.00 69 1002.2
20171124032816 38 234 4.0 7.0 0.00 0.00 0.00 72 1002.4
20171124032340 37 236 3.0 7.0 0.00 0.00 0.00 73 1003.5
20171124032319 37 212 3.0 7.0 0.00 0.00 0.00 73 1002.5
20171124031809 37 230 3.0 7.0 0.00 0.00 0.00 73 1002.6
20171124031311 37 236 0.0 3.0 0.00 0.00 0.00 75 1002.8
20171124030821 37 235 1.0 3.0 0.00 0.00 0.00 75 1003.0
20171124030555 36 236 1.0 5.0 0.00 0.00 0.00 76 1004.0
20171124030325 36 240 1.0 5.0 0.00 0.00 0.00 76 1003.0
20171124025835 35 243 2.0 6.0 0.00 0.00 0.00 79 1003.0
20171124025337 34 244 2.0 5.0 0.00 0.00 0.00 81 1003.1
20171124024917 33 185 0.0 4.0 0.00 0.00 0.00 84 1004.1
20171124024825 33 146 0.0 1.0 0.00 0.00 0.00 84 1003.1
20171124024309 33 146 0.0 0.0 0.00 0.00 0.00 83 1003.6
20171124023819 33 146 0.0 0.0 0.00 0.00 0.00 84 1003.6
20171124023329 32 146 0.0 0.0 0.00 0.00 0.00 84 1003.8
20171124023158 32 146 0.0 0.0 0.00 0.00 0.00 84 1004.8
20171124022812 32 146 0.0 0.0 0.00 0.00 0.00 82 1003.8
20171124022314 32 146 0.0 0.0 0.00 0.00 0.00 84 1003.9
20171124021823 32 146 0.0 0.0 0.00 0.00 0.00 83 1004.1
20171124021607 31 146 0.0 0.0 0.00 0.00 0.00 82 1005.3
20171124021307 31 146 0.0 0.0 0.00 0.00 0.00 82 1004.4
20171124020836 31 146 0.0 0.0 0.00 0.00 0.00 84 1004.5
20171124020008 31 146 0.0 2.0 0.00 0.00 0.00 86 1005.7
20171124015805 31 146 0.0 2.0 0.00 0.00 0.00 86 1004.7
20171124015308 31 146 1.0 2.0 0.00 0.00 0.00 85 1004.8
20171124014817 31 146 0.0 3.0 0.00 0.00 0.00 86 1005.1
20171124014331 31 146 2.0 3.0 0.00 0.00 0.00 86 1006.2
20171124014307 31 146 2.0 3.0 0.00 0.00 0.00 86 1005.2
20171124013810 31 146 1.0 2.0 0.00 0.00 0.00 85 1005.7
20171124013313 31 146 0.0 2.0 0.00 0.00 0.00 85 1005.6
20171124012822 31 146 0.0 2.0 0.00 0.00 0.00 86 1005.6
20171124012659 30 146 0.0 2.0 0.00 0.00 0.00 85 1006.6
20171124012304 30 146 0.0 2.0 0.00 0.00 0.00 86 1005.3
20171124011807 30 146 0.0 3.0 0.00 0.00 0.00 87 1005.3
20171124011337 30 146 2.0 3.0 0.00 0.00 0.00 87 1005.3
20171124011109 29 146 1.0 2.0 0.00 0.00 0.00 87 1006.5
20171124010818 30 146 1.0 2.0 0.00 0.00 0.00 86 1005.6
20171124010309 30 146 0.0 0.0 0.00 0.00 0.00 86 1005.9
20171124005818 30 146 0.0 0.0 0.00 0.00 0.00 85 1006.2
20171124005344 30 146 0.0 2.0 0.00 0.00 0.00 84 1007.5
20171124005321 30 146 0.0 2.0 0.00 0.00 0.00 84 1006.4
20171124004804 31 146 0.0 3.0 0.00 0.00 0.00 84 1006.6
20171124004314 31 146 1.0 3.0 0.00 0.00 0.00 84 1006.7
20171124003815 31 146 1.0 2.0 0.00 0.00 0.00 84 1006.8
20171124003738 30 146 0.0 2.0 0.00 0.00 0.00 84 1007.7
20171124003327 31 146 0.0 1.0 0.00 0.00 0.00 84 1006.8
20171124002828 30 146 0.0 0.0 0.00 0.00 0.00 84 1006.9
20171124002339 30 146 0.0 0.0 0.00 0.00 0.00 84 1006.9
20171124002110 30 146 0.0 0.0 0.00 0.00 0.00 84 1008.0
20171124001808 30 146 0.0 1.0 0.00 0.00 0.00 85 1007.0
20171124001332 30 146 0.0 2.0 0.00 0.00 0.00 85 1007.1
20171124000820 30 146 1.0 2.0 0.00 0.00 0.00 85 1007.2
20171124000402 29 147 1.0 3.0 0.00 0.00 0.00 84 1008.3
20171124000324 30 147 1.0 3.0 0.00 0.00 0.00 84 1007.3
20171123235806 29 148 2.0 3.0 0.00 0.00 0.00 84 1007.4
20171123235316 29 148 2.0 3.0 0.00 0.00 0.00 86 1007.4
20171123234818 29 148 2.0 3.0 0.00 0.00 0.00 86 1007.6
20171123234743 29 149 1.0 3.0 0.00 0.00 0.00 85 1008.6
20171123234328 29 153 2.0 3.0 0.00 0.00 0.00 85 1007.6
20171123233811 29 153 2.0 3.0 0.00 0.00 0.00 86 1007.5
20171123233317 29 155 2.0 2.0 0.00 0.00 0.00 86 1007.5
20171123233138 29 155 1.0 3.0 0.00 0.00 0.00 86 1008.6
20171123232819 29 157 2.0 3.0 0.00 0.00 0.00 86 1007.7
20171123232349 29 157 2.0 3.0 0.00 0.00 0.00 85 1007.7
20171123231813 30 158 2.0 3.0 0.00 0.00 0.00 85 1007.6
20171123231454 29 163 2.0 3.0 0.00 0.00 0.00 85 1008.6
20171123231316 30 164 2.0 3.0 0.00 0.00 0.00 85 1007.7
20171123230819 30 167 2.0 3.0 0.00 0.00 0.00 85 1007.7
20171123230329 30 169 2.0 3.0 0.00 0.00 0.00 85 1007.8
20171123225900 29 171 2.0 3.0 0.00 0.00 0.00 84 1008.9
20171123225812 30 172 2.0 3.0 0.00 0.00 0.00 84 1007.9
20171123225315 30 173 2.0 3.0 0.00 0.00 0.00 84 1008.1
20171123224824 30 174 2.0 3.0 0.00 0.00 0.00 83 1008.1
20171123224308 30 177 2.0 3.0 0.00 0.00 0.00 82 1008.1
20171123224255 30 177 2.0 3.0 0.00 0.00 0.00 82 1009.1
20171123223812 30 188 2.0 3.0 0.00 0.00 0.00 82 1008.1
20171123223323 31 188 2.0 3.0 0.00 0.00 0.00 81 1008.1
20171123222805 31 199 2.0 3.0 0.00 0.00 0.00 79 1007.9
20171123222653 31 204 2.0 3.0 0.00 0.00 0.00 78 1009.0
20171123222309 32 214 2.0 2.0 0.00 0.00 0.00 77 1007.9
20171123221811 32 217 2.0 2.0 0.00 0.00 0.00 75 1008.0
20171123221322 33 223 2.0 2.0 0.00 0.00 0.00 74 1008.0
20171123221055 33 226 1.0 2.0 0.00 0.00 0.00 74 1009.0
20171123220805 34 228 2.0 2.0 0.00 0.00 0.00 71 1008.0
20171123220308 35 229 2.0 2.0 0.00 0.00 0.00 70 1007.9